KK4OHF Weather Reports


time (UTC)temp
F
wind
direction
speed
knots
gust
knots
rain 1hr
in
rain 24hr
in
rain mn
in
humidity
%
barometer
mb
20260901025505 76 16 0.0 0.0 0.00 0.00 0.00 85 1019.2
20260901025005 76 16 0.0 0.0 0.00 0.00 0.00 85 1019.2
20260901024505 76 16 0.0 0.0 0.00 0.00 0.00 85 1019.1
20260901024005 76 16 0.0 0.0 0.00 0.00 0.00 85 1019.1
20260901023504 77 16 0.0 0.0 0.00 0.00 0.00 84 1019.1
20260901023005 77 16 0.0 0.0 0.00 0.00 0.00 84 1018.5
20260901022505 77 16 0.0 0.0 0.00 0.00 0.00 84 1018.5
20260901022005 77 16 0.0 0.0 0.00 0.00 0.00 84 1018.5
20260901021506 78 16 0.0 0.0 0.00 0.00 0.00 84 1018.5
20260901021005 78 16 0.0 0.0 0.00 0.00 0.00 83 1018.5
20260901015504 78 16 0.0 0.0 0.00 0.00 0.00 82 1018.5
20260901015005 79 16 0.0 0.0 0.00 0.00 0.00 82 1018.5
20260901014505 79 16 0.0 0.0 0.00 0.00 0.00 82 1018.5
20260901014005 79 16 0.0 0.0 0.00 0.00 0.00 82 1018.5
20260901013505 80 16 0.0 0.0 0.00 0.00 0.00 82 1018.5
20260901013005 80 16 0.0 0.0 0.00 0.00 0.00 82 1018.4
20260901012504 80 16 0.0 0.9 0.00 0.00 0.00 81 1018.4
20260901012006 80 16 0.0 1.7 0.00 0.00 0.00 81 1018.2
20260901011505 81 16 0.0 0.0 0.00 0.00 0.00 81 1018.2
20260901011005 81 16 0.0 0.0 0.00 0.00 0.00 80 1018.2
20260901010505 81 16 0.0 0.0 0.00 0.00 0.00 79 1018.2
20260901010005 82 16 0.0 0.0 0.00 0.00 0.00 79 1017.9
20260901005005 83 16 0.0 0.0 0.00 0.00 0.00 77 1017.9
20260901004505 83 16 0.0 0.0 0.00 0.00 0.00 77 1017.9
20260901004005 83 16 0.0 0.0 0.00 0.00 0.00 76 1017.9
20260901003505 84 16 0.0 0.0 0.00 0.00 0.00 76 1017.9
20260901003005 84 16 0.0 0.0 0.00 0.00 0.00 75 1017.9
20260901002505 84 16 0.0 0.0 0.00 0.00 0.00 73 1017.9
20260901002005 85 16 0.0 0.0 0.00 0.00 0.00 72 1017.9
20260901001505 85 16 0.0 0.0 0.00 0.00 0.00 73 1017.9
20260901000504 86 16 0.0 0.0 0.00 0.00 0.00 71 1017.9
20260901000005 87 16 0.0 0.0 0.00 0.00 0.00 70 1017.9
20260831235505 87 16 0.0 0.0 0.00 0.00 0.00 69 1017.9
20260831235005 87 16 0.0 0.0 0.00 0.00 0.00 68 1017.9
20260831234505 88 16 0.0 0.0 0.00 0.00 0.00 67 1017.9
20260831233506 88 16 0.0 0.0 0.00 0.00 0.00 65 1017.9
20260831232505 88 16 0.0 0.0 0.00 0.00 0.00 59 1017.9
20260831232005 88 16 0.0 0.0 0.00 0.00 0.00 59 1017.9
20260831231505 88 16 0.0 0.0 0.00 0.00 0.00 58 1017.9
20260831231005 88 16 0.0 0.9 0.00 0.00 0.00 58 1017.9
20260831230505 88 16 0.9 1.7 0.00 0.00 0.00 57 1017.9
20260831230006 89 16 0.9 1.7 0.00 0.00 0.00 56 1017.9
20260831225504 89 16 0.0 0.9 0.00 0.00 0.00 56 1017.9
20260831225005 89 16 0.9 1.7 0.00 0.00 0.00 55 1017.9
20260831224006 89 16 0.9 1.7 0.00 0.00 0.00 54 1018.1
20260831222006 89 36 0.9 2.6 0.00 0.00 0.00 54 1018.5
20260831221504 89 5 1.7 2.6 0.00 0.00 0.00 54 1018.5
20260831221005 89 15 0.9 2.6 0.00 0.00 0.00 55 1018.5
20260831220505 90 15 0.9 1.7 0.00 0.00 0.00 55 1018.5
20260831220005 90 15 0.9 2.6 0.00 0.00 0.00 54 1018.5
20260831215505 90 80 0.9 1.7 0.00 0.00 0.00 54 1018.5
20260831215005 90 80 0.9 1.7 0.00 0.00 0.00 52 1018.5
20260831214505 90 13 0.9 1.7 0.00 0.00 0.00 53 1018.5
20260831214004 90 13 0.9 2.6 0.00 0.00 0.00 52 1018.5
20260831213006 90 23 0.9 2.6 0.00 0.00 0.00 53 1018.5
20260831212505 91 142 0.0 1.7 0.00 0.00 0.00 53 1018.5
20260831212006 91 11 0.0 1.7 0.00 0.00 0.00 52 1018.6
20260831211505 91 11 0.9 2.6 0.00 0.00 0.00 53 1018.6
20260831210506 91 17 0.9 2.6 0.00 0.00 0.00 51 1018.5
20260831210005 91 8 1.7 2.6 0.00 0.00 0.00 53 1018.7
20260831205504 91 103 0.9 1.7 0.00 0.00 0.00 53 1018.7
20260831205005 91 73 0.9 1.7 0.00 0.00 0.00 52 1018.7
20260831204005 90 11 0.9 2.6 0.00 0.00 0.00 52 1018.9
20260831203005 91 5 0.9 1.7 0.00 0.00 0.00 53 1019.0
20260831202505 91 5 0.9 1.7 0.00 0.00 0.00 53 1019.0
20260831202006 91 351 0.9 2.6 0.00 0.00 0.00 51 1019.0
20260831201505 91 18 0.9 2.6 0.00 0.00 0.00 53 1019.0
20260831201005 92 27 1.7 4.3 0.00 0.00 0.00 52 1019.0
20260831200506 92 335 0.9 1.7 0.00 0.00 0.00 52 1019.0
20260831195506 92 104 1.7 2.6 0.00 0.00 0.00 49 1019.6
20260831195005 92 71 0.9 1.7 0.00 0.00 0.00 48 1019.6
20260831194006 91 105 0.9 2.6 0.00 0.00 0.00 53 1019.6
20260831193505 91 29 0.9 2.6 0.00 0.00 0.00 51 1019.6
20260831193004 92 22 1.7 2.6 0.00 0.00 0.00 53 1019.6
20260831192505 91 254 1.7 2.6 0.00 0.00 0.00 53 1019.6
20260831192006 90 306 0.9 2.6 0.00 0.00 0.00 54 1019.6
20260831191504 89 314 1.7 4.3 0.00 0.00 0.00 55 1019.6
20260831190504 90 9 1.7 2.6 0.00 0.00 0.00 54 1019.6
20260831190005 91 344 1.7 2.6 0.00 0.00 0.00 54 1020.0
20260831185506 92 316 0.9 2.6 0.00 0.00 0.00 53 1020.0
20260831184005 89 9 1.7 2.6 0.00 0.00 0.00 53 1020.0
20260831183505 89 310 2.6 4.3 0.00 0.00 0.00 55 1020.0
20260831183006 89 1 0.9 2.6 0.00 0.00 0.00 55 1020.0
20260831182505 90 356 0.9 2.6 0.00 0.00 0.00 57 1020.0
20260831182005 90 24 2.6 4.3 0.00 0.00 0.00 55 1020.4
20260831181505 89 21 2.6 4.3 0.00 0.00 0.00 56 1020.4
20260831181004 89 5 0.9 2.6 0.00 0.00 0.00 58 1020.4
20260831180505 89 7 1.7 2.6 0.00 0.00 0.00 56 1020.4
20260831175506 90 344 0.9 1.7 0.00 0.00 0.00 56 1020.4
20260831175006 89 242 1.7 2.6 0.00 0.00 0.00 54 1020.4
20260831174505 89 26 1.7 2.6 0.00 0.00 0.00 57 1020.5
20260831174006 89 11 1.7 2.6 0.00 0.00 0.00 58 1020.6
20260831173504 90 10 0.9 2.6 0.00 0.00 0.00 57 1020.6
20260831173005 89 58 0.9 2.6 0.00 0.00 0.00 56 1020.6
20260831172505 89 336 1.7 2.6 0.00 0.00 0.00 61 1020.6
20260831172005 89 26 0.9 2.6 0.00 0.00 0.00 59 1021.0
20260831171505 89 24 1.7 2.6 0.00 0.00 0.00 60 1021.0
20260831171005 90 30 2.6 7.0 0.00 0.00 0.00 58 1021.0
20260831170504 89 122 0.9 2.6 0.00 0.00 0.00 62 1021.0
20260831165005 89 7 2.6 4.3 0.00 0.00 0.00 61 1021.1
20260831164505 88 94 0.9 2.6 0.00 0.00 0.00 65 1021.1
20260831164005 88 9 1.7 4.3 0.00 0.00 0.00 61 1021.1
20260831163505 88 167 0.9 1.7 0.00 0.00 0.00 61 1021.1
20260831163005 88 32 0.9 2.6 0.00 0.00 0.00 66 1021.1
20260831162505 87 130 0.9 1.7 0.00 0.00 0.00 67 1021.1
20260831162005 87 26 0.9 1.7 0.00 0.00 0.00 65 1021.1
20260831161504 88 26 0.9 1.7 0.00 0.00 0.00 63 1021.1
20260831160505 88 238 0.9 1.7 0.00 0.00 0.00 64 1021.5
20260831155505 87 245 0.9 2.6 0.00 0.00 0.00 67 1021.5
20260831155005 88 172 0.9 2.6 0.00 0.00 0.00 65 1021.5
20260831154505 89 141 1.7 2.6 0.00 0.00 0.00 66 1021.5
20260831153504 88 262 0.9 2.6 0.00 0.00 0.00 68 1021.5
20260831153005 86 242 1.7 2.6 0.00 0.00 0.00 70 1021.5
20260831152505 87 25 0.9 2.6 0.00 0.00 0.00 71 1021.5
20260831152005 86 70 0.9 1.7 0.00 0.00 0.00 67 1021.5
20260831151005 85 25 0.9 1.7 0.00 0.00 0.00 72 1021.5
20260831150505 86 355 0.9 1.7 0.00 0.00 0.00 73 1021.5
20260831150005 84 34 0.9 1.7 0.00 0.00 0.00 75 1021.2
20260831145504 84 88 0.9 2.6 0.00 0.00 0.00 74 1021.2
20260831145005 84 296 0.9 2.6 0.00 0.00 0.00 75 1021.2
20260831144506 85 98 0.0 1.7 0.00 0.00 0.00 74 1021.2
20260831143504 84 137 0.9 2.6 0.00 0.00 0.00 77 1021.2
20260831143006 83 236 0.9 1.7 0.00 0.00 0.00 80 1021.2
20260831142005 82 127 0.9 2.6 0.00 0.00 0.00 78 1021.2
20260831141505 82 146 0.9 1.7 0.00 0.00 0.00 80 1021.2
20260831141004 81 126 0.0 1.7 0.00 0.00 0.00 81 1021.2
20260831140505 80 143 0.9 1.7 0.00 0.00 0.00 83 1021.2
20260831140006 80 118 0.9 2.6 0.00 0.00 0.00 85 1020.6
20260831135505 79 126 0.9 2.6 0.00 0.00 0.00 87 1020.6
20260831134505 76 212 0.0 0.9 0.00 0.00 0.00 88 1020.6
20260831134005 75 173 0.0 0.9 0.00 0.00 0.00 87 1020.6
20260831133505 74 173 0.0 0.9 0.00 0.00 0.00 87 1020.6
20260831133006 73 173 0.0 1.7 0.00 0.00 0.00 88 1020.6
20260831132505 73 173 0.0 1.7 0.00 0.00 0.00 88 1020.6
20260831131506 73 189 0.0 0.9 0.00 0.00 0.00 88 1020.6
20260831131005 72 127 0.0 1.7 0.00 0.00 0.00 88 1020.6
20260831130006 72 139 0.0 1.7 0.00 0.00 0.00 88 1020.6
20260831125505 72 139 0.9 1.7 0.00 0.00 0.00 88 1020.6
20260831125006 72 139 0.0 0.9 0.00 0.00 0.00 88 1020.6
20260831124506 71 139 0.9 1.7 0.00 0.00 0.00 88 1020.6
20260831124005 71 139 0.9 0.9 0.00 0.00 0.00 89 1020.6
20260831123505 70 139 0.0 0.9 0.00 0.00 0.00 89 1020.6
20260831123005 70 139 0.0 0.0 0.00 0.00 0.00 89 1020.6
20260831122505 70 139 0.0 0.0 0.00 0.00 0.00 89 1020.6
20260831122004 70 139 0.0 0.9 0.00 0.00 0.00 89 1020.6
20260831121505 70 139 0.0 0.9 0.00 0.00 0.00 89 1020.6
20260831121005 69 139 0.0 0.0 0.00 0.00 0.00 89 1020.6
20260831120505 69 139 0.0 0.0 0.00 0.00 0.00 89 1020.6
20260831120005 69 139 0.0 0.0 0.00 0.00 0.00 89 1020.5
20260831115506 69 139 0.0 0.0 0.00 0.00 0.00 89 1020.5
20260831115004 69 139 0.0 0.0 0.00 0.00 0.00 89 1020.5
20260831114505 69 139 0.0 0.0 0.00 0.00 0.00 89 1020.4
20260831114005 69 139 0.0 0.0 0.00 0.00 0.00 89 1020.4
20260831113506 69 139 0.0 0.0 0.00 0.00 0.00 89 1020.4
20260831113005 69 139 0.0 0.0 0.00 0.00 0.00 89 1020.3
20260831112505 69 139 0.0 0.0 0.00 0.00 0.00 89 1020.3
20260831112005 69 139 0.0 0.0 0.00 0.00 0.00 89 1020.1
20260831111505 69 139 0.0 0.0 0.00 0.00 0.00 89 1020.1
20260831111005 69 139 0.0 0.0 0.00 0.00 0.00 89 1020.1
20260831110505 69 139 0.0 0.0 0.00 0.00 0.00 89 1020.1
20260831110006 69 139 0.0 0.0 0.00 0.00 0.00 89 1020.0
20260831105505 69 139 0.0 0.0 0.00 0.00 0.00 89 1020.0
20260831105005 69 139 0.0 0.0 0.00 0.00 0.00 89 1020.0
20260831104505 69 139 0.0 0.0 0.00 0.00 0.00 89 1020.0
20260831104005 69 139 0.0 0.0 0.00 0.00 0.00 89 1019.6
20260831103505 69 139 0.0 0.9 0.00 0.00 0.00 89 1019.6
20260831103005 70 139 0.0 0.0 0.00 0.00 0.00 89 1019.6
20260831102505 70 139 0.0 0.0 0.00 0.00 0.00 89 1019.6
20260831102006 70 139 0.0 0.0 0.00 0.00 0.00 89 1019.6
20260831101505 70 139 0.0 0.9 0.00 0.00 0.00 89 1019.6
20260831100505 70 139 0.0 0.9 0.00 0.00 0.00 89 1019.6
20260831100005 70 139 0.0 0.0 0.00 0.00 0.00 89 1019.6
20260831095004 70 139 0.0 0.0 0.00 0.00 0.00 89 1019.5
20260831094505 70 139 0.0 0.0 0.00 0.00 0.00 89 1019.5
20260831094005 70 139 0.0 0.0 0.00 0.00 0.00 90 1019.5
20260831093505 70 139 0.0 0.0 0.00 0.00 0.00 89 1019.5
20260831091505 70 139 0.0 0.9 0.00 0.00 0.00 89 1019.5
20260831091005 70 139 0.0 0.9 0.00 0.00 0.00 89 1019.5
20260831090504 70 139 0.0 0.9 0.00 0.00 0.00 90 1019.5
20260831090006 70 139 0.0 0.0 0.00 0.00 0.00 90 1019.5
20260831085504 70 139 0.0 0.9 0.00 0.00 0.00 90 1019.5
20260831085006 70 139 0.0 0.9 0.00 0.00 0.00 90 1019.5
20260831084505 70 139 0.0 0.9 0.00 0.00 0.00 90 1019.5
20260831084005 71 139 0.0 0.0 0.00 0.00 0.00 90 1019.5
20260831083505 71 139 0.0 0.0 0.00 0.00 0.00 90 1019.5
20260831083006 71 139 0.0 0.0 0.00 0.00 0.00 90 1019.1
20260831082505 71 139 0.0 0.9 0.00 0.00 0.00 89 1019.1
20260831081505 71 139 0.0 0.0 0.00 0.00 0.00 89 1019.1
20260831081004 71 139 0.0 0.0 0.00 0.00 0.00 89 1019.1
20260831080505 71 139 0.0 0.0 0.00 0.00 0.00 89 1019.1
20260831080005 71 139 0.0 0.9 0.00 0.00 0.00 89 1019.0
20260831075505 71 139 0.0 0.9 0.00 0.00 0.00 89 1019.0
20260831075005 71 139 0.0 0.9 0.00 0.00 0.00 89 1019.0
20260831074506 71 139 0.0 0.9 0.00 0.00 0.00 89 1019.0
20260831074004 71 139 0.0 0.0 0.00 0.00 0.00 89 1019.0
20260831073505 71 139 0.0 0.0 0.00 0.00 0.00 89 1019.0
20260831073005 71 139 0.0 0.0 0.00 0.00 0.00 89 1019.0
20260831072505 71 139 0.0 0.0 0.00 0.00 0.00 89 1019.0
20260831072005 71 139 0.0 0.0 0.00 0.00 0.00 89 1019.0
20260831071505 71 139 0.0 0.0 0.00 0.00 0.00 89 1019.0
20260831071006 71 139 0.0 0.0 0.00 0.00 0.00 89 1019.0
20260831070505 72 139 0.0 0.0 0.00 0.00 0.00 89 1019.0
20260831070005 72 139 0.0 0.0 0.00 0.00 0.00 89 1018.9
20260831065505 72 139 0.0 0.0 0.00 0.00 0.00 89 1018.9
20260831065005 72 139 0.0 0.0 0.00 0.00 0.00 89 1019.0
20260831064005 72 139 0.0 0.9 0.00 0.00 0.00 89 1019.1
20260831063505 72 139 0.0 0.0 0.00 0.00 0.00 89 1019.1
20260831063005 72 139 0.0 0.0 0.00 0.00 0.00 89 1019.2
20260831062505 72 139 0.0 0.0 0.00 0.00 0.00 89 1019.2
20260831062005 72 139 0.0 0.0 0.00 0.00 0.00 89 1019.1
20260831061505 72 139 0.0 0.0 0.00 0.00 0.00 89 1019.1
20260831061005 72 139 0.0 0.0 0.00 0.00 0.00 89 1019.1
20260831055004 73 139 0.0 0.0 0.00 0.00 0.00 89 1019.4
20260831054505 73 139 0.0 0.0 0.00 0.00 0.00 89 1019.4
20260831054005 73 139 0.0 0.0 0.00 0.00 0.00 89 1019.4
20260831053005 73 139 0.0 0.0 0.00 0.00 0.00 89 1019.2
20260831052005 73 139 0.0 0.0 0.00 0.00 0.00 89 1019.2
20260831051504 73 139 0.0 0.0 0.00 0.00 0.00 89 1019.2
20260831051005 73 139 0.0 0.0 0.00 0.00 0.00 89 1019.4
20260831050505 73 139 0.0 0.0 0.00 0.00 0.00 89 1019.4
20260831050005 74 139 0.0 0.0 0.00 0.00 0.00 89 1019.5
20260831045505 74 139 0.0 0.0 0.00 0.00 0.00 89 1019.5
20260831045005 74 139 0.0 0.0 0.00 0.00 0.00 89 1019.5
20260831044505 74 139 0.0 0.0 0.00 0.00 0.00 88 1019.5
20260831044005 74 139 0.0 0.9 0.00 0.00 0.00 88 1019.5
20260831043005 74 139 0.0 0.0 0.00 0.00 0.00 88 1019.5
20260831042506 74 139 0.0 0.0 0.00 0.00 0.00 88 1019.5
20260831042005 74 139 0.0 0.0 0.00 0.00 0.00 88 1019.5
20260831041505 74 139 0.0 0.0 0.00 0.00 0.00 88 1019.5
20260831040506 75 139 0.0 0.0 0.00 0.00 0.00 88 1019.5
20260831040005 75 139 0.0 0.0 0.00 0.00 0.00 88 1019.4
20260831035504 75 139 0.0 0.9 0.00 0.00 0.00 88 1019.4
20260831035005 75 139 0.0 0.0 0.00 0.00 0.00 88 1019.4
20260831034505 75 139 0.0 0.0 0.00 0.00 0.00 88 1019.4
20260831034005 75 139 0.0 0.9 0.00 0.00 0.00 87 1019.4
20260831033505 75 139 0.0 0.0 0.00 0.00 0.00 87 1019.4
20260831033005 76 139 0.0 0.0 0.00 0.00 0.00 87 1019.5
20260831032505 76 139 0.0 0.0 0.00 0.00 0.00 87 1019.5
20260831032006 76 139 0.0 0.0 0.00 0.00 0.00 87 1019.5
20260831031505 76 139 0.0 0.0 0.00 0.00 0.00 87 1019.5
20260831031005 76 139 0.0 0.0 0.00 0.00 0.00 87 1019.5
20260831030505 76 139 0.0 0.0 0.00 0.00 0.00 87 1019.5
20260831030004 76 139 0.0 0.0 0.00 0.00 0.00 87 1019.5